Location: Bemmer
(51.5498°N, 5.6249°E)
Time: 11:58:12
(UTC+00:00)

USA 234 - Pass Details

Date: 03 March 2021
Orbit: 1102 x 1105 km, 123.0° (Epoch: 08 April)

Event Time Altitude Azimuth Distance (km) Brightness Sun altitude
Exits shadow 19:39:56 34° 77° (ENE) 1,736 3.8 -22.1°
Maximum altitude 19:42:49 60° 142° (SE) 1,248 3.2 -22.5°
Drops below altitude 10° 19:49:16 10° 222° (SW) 2,957 5.8 -23.4°
Sets 19:51:47 0° 226° (SW) 3,912 6.5 -23.8°
